Lone Rock, WI

2:41 PM CST on November 19, 2017 (GMT -0600)
Tri-County Regional

Weather History for KLNR - March, 2013

Change the Weather History Date:

Thursday, March 14, 2013

  Actual Average Record
Temperature  
Mean Temperature 28 °F -  
Max Temperature 35 °F 39 °F 78 °F (2012)
Min Temperature 21 °F 22 °F 10 °F (2017)
Degree Days  
Heating Degree Days 37    
Moisture  
Dew Point 22 °F    
Average Humidity 81    
Maximum Humidity 93    
Minimum Humidity 71    
Precipitation  
Precipitation 0.03 in - - ()
Sea Level Pressure  
Sea Level Pressure 30.21 in    
Wind  
Wind Speed 4 mph (ESE)    
Max Wind Speed 12 mph    
Max Gust Speed -    
Visibility 6 miles    
Events Fog , Snow    
Averages and records for this station are not official NWS values.
T = Trace of Precipitation, MM = Missing Value Source: NWS Daily Summary

Daily Weather History Graph

Daily Weather History Graph

Search for Another Location

Airport or City:

Trip Planner

Search our weather history database for the weather conditions in past years. The results will help you decide how hot, cold, wet, or windy it might be!

Date:

Astronomy

Mar. 14, 2013 Rise Set
Actual Time 7:14 AM CDT 7:06 PM CDT
Civil Twilight 6:45 AM CDT 7:34 PM CDT
Nautical Twilight 6:12 AM CDT 8:07 PM CDT
Astronomical Twilight 5:39 AM CDT 8:41 PM CDT
Moon 8:22 AM CDT (3/14) 10:29 PM CDT (3/14)
Length of Visible Light 12h 48m
Length of Day
11h 52m
Waxing Crescent, 9% of the Moon is Illuminated
Mar 14
Waxing Crescent
Mar 19
First Quarter
Mar 27
Full
Apr 2
Last Quarter
Apr 10
New

Hourly Weather History & Observations

Time (CDT) Temp. Windchill Dew Point Humidity Pressure Visibility Wind Dir Wind Speed Gust Speed Precip Events Conditions
12:56 AM 24.1 °F 19.7 °F 16.0 °F 71% 30.33 in 10.0 mi West 3.5 mph - N/A   Clear
1:56 AM 24.1 °F 19.7 °F 16.0 °F 71% 30.32 in 10.0 mi WSW 3.5 mph - N/A   Clear
2:56 AM 23.0 °F - 16.0 °F 74% 30.31 in 10.0 mi Calm Calm - N/A   Clear
3:56 AM 21.9 °F 17.2 °F 17.1 °F 82% 30.29 in 10.0 mi East 3.5 mph - N/A   Clear
4:56 AM 21.0 °F - 15.1 °F 78% 30.29 in 10.0 mi Calm Calm - N/A   Mostly Cloudy
5:56 AM 21.0 °F - 15.1 °F 78% 30.29 in 10.0 mi Calm Calm - N/A   Mostly Cloudy
6:56 AM 21.9 °F 17.2 °F 16.0 °F 78% 30.28 in 10.0 mi ESE 3.5 mph - N/A   Overcast
7:56 AM 21.9 °F 17.2 °F 16.0 °F 78% 30.27 in 9.0 mi East 3.5 mph - N/A   Overcast
9:56 AM 25.0 °F 19.3 °F 19.0 °F 78% 30.27 in 7.0 mi ESE 4.6 mph - 0.00 in   Overcast
10:06 AM 24.8 °F 19.1 °F 17.6 °F 74% 30.25 in 8.0 mi East 4.6 mph - N/A   Overcast
10:31 AM 24.8 °F 19.1 °F 19.4 °F 80% 30.24 in 5.0 mi ESE 4.6 mph - 0.00 in Snow Light Snow
10:47 AM 24.8 °F 20.5 °F 19.4 °F 80% 30.24 in 1.8 mi ESE 3.5 mph - 0.00 in Snow Light Snow
10:56 AM 25.0 °F 18.1 °F 19.9 °F 81% 30.25 in 1.0 mi East 5.8 mph - 0.00 in Snow Light Snow
11:04 AM 24.8 °F 17.9 °F 19.4 °F 80% 30.23 in 0.8 mi East 5.8 mph - 0.00 in Snow Light Snow
11:28 AM 24.8 °F 16.9 °F 21.2 °F 86% 30.23 in 0.5 mi East 6.9 mph - 0.00 in Fog , Snow Snow
11:56 AM 25.0 °F 15.5 °F 21.9 °F 88% 30.24 in 0.2 mi East 9.2 mph - 0.02 in Fog , Snow Snow
12:27 PM 26.6 °F 18.2 °F 24.8 °F 93% 30.21 in 1.2 mi East 8.1 mph - 0.01 in Snow Light Snow
12:39 PM 26.6 °F 18.2 °F 23.0 °F 86% 30.21 in 1.8 mi East 8.1 mph - 0.01 in Snow Light Snow
12:49 PM 26.6 °F 17.5 °F 23.0 °F 86% 30.21 in 2.5 mi East 9.2 mph - 0.01 in Snow Light Snow
12:56 PM 27.0 °F 18.0 °F 24.1 °F 89% 30.22 in 3.0 mi East 9.2 mph - 0.01 in Snow Light Snow
1:05 PM 26.6 °F 16.2 °F 24.8 °F 93% 30.19 in 4.0 mi East 11.5 mph - 0.00 in   Overcast
1:56 PM 30.0 °F 21.7 °F 26.1 °F 85% 30.19 in 10.0 mi East 9.2 mph - 0.00 in   Overcast
5:22 PM 35.6 °F 29.9 °F 28.4 °F 75% 30.13 in 10.0 mi South 6.9 mph - N/A   Scattered Clouds
5:56 PM 35.1 °F 28.6 °F 28.0 °F 76% 30.15 in 10.0 mi South 8.1 mph - N/A   Mostly Cloudy
6:37 PM 33.8 °F 28.6 °F 26.6 °F 75% 30.14 in 9.0 mi South 5.8 mph - N/A   Scattered Clouds
6:56 PM 33.1 °F 28.7 °F 27.0 °F 78% 30.16 in 9.0 mi SSW 4.6 mph - N/A   Scattered Clouds
7:56 PM 32.0 °F - 26.1 °F 79% 30.13 in 9.0 mi Calm Calm - N/A   Clear
8:56 PM 28.9 °F - 26.1 °F 89% 30.09 in 6.0 mi Calm Calm - N/A   Clear
9:56 PM 30.9 °F - 27.0 °F 85% 30.09 in 7.0 mi Calm Calm - N/A   Clear
10:56 PM 30.0 °F - 26.1 °F 85% 30.10 in 6.0 mi Calm Calm - N/A   Clear
11:56 PM 28.0 °F - 26.1 °F 92% 30.07 in 4.0 mi Calm Calm - N/A   Clear